DW4184 Weather Reports


Display with metric or nautical units.
time (UTC)temp
F
wind
direction
speed
MPH
gust
MPH
rain 1hr
in
rain 24hr
in
rain mn
in
humidity
%
barometer
mb
20260505204123 77 208 1.0 4.0 0.00 0.00 0.00 41 1010.9
20260505203059 77 182 1.0 5.0 0.00 0.00 0.00 40 1011.1
20260505202102 77 54 1.0 7.0 0.00 0.00 0.00 44 1011.1
20260505201032 76 180 2.0 7.0 0.00 0.00 0.00 41 1011.4
20260505200047 76 72 2.0 9.0 0.00 0.00 0.00 44 1011.5
20260505195020 76 292 1.0 9.0 0.00 0.00 0.00 43 1011.5
20260505192901 75 198 2.0 7.0 0.00 0.00 0.00 47 1012.0
20260505191838 75 208 1.0 6.0 0.00 0.00 0.00 47 1012.0
20260505185659 75 82 1.0 7.0 0.00 0.00 0.00 44 1012.2
20260505183612 74 105 2.0 10.0 0.00 0.00 0.00 42 1012.7
20260505182600 75 221 2.0 9.0 0.00 0.00 0.00 41 1012.7
20260505180416 74 298 1.0 10.0 0.00 0.00 0.00 44 1012.9
20260505175352 74 175 3.0 10.0 0.00 0.00 0.00 42 1012.8
20260505174415 73 355 2.0 9.0 0.00 0.00 0.00 40 1013.2
20260505172252 74 61 2.0 10.0 0.00 0.00 0.00 40 1013.4
20260505171238 73 71 3.0 10.0 0.00 0.00 0.00 41 1013.5
20260505170254 73 329 3.0 10.0 0.00 0.00 0.00 44 1013.5
20260505165312 72 325 2.0 8.0 0.00 0.00 0.00 48 1013.7
20260505163107 72 71 2.0 12.0 0.00 0.00 0.00 45 1013.8
20260505162049 71 324 3.0 12.0 0.00 0.00 0.00 49 1013.6
20260505161044 72 355 1.0 5.0 0.00 0.00 0.00 49 1013.8
20260505152848 69 85 1.0 6.0 0.00 0.00 0.00 55 1014.0
20260505151909 69 355 0.0 3.0 0.00 0.00 0.00 58 1014.1
20260505150920 68 331 0.0 2.0 0.00 0.00 0.00 61 1014.0
20260505121212 45 71 0.0 0.0 0.00 0.00 0.00 98 1014.3
20260505120219 44 71 0.0 0.0 0.00 0.00 0.00 97 1014.3
20260505115201 44 71 0.0 0.0 0.00 0.00 0.00 97 1014.0
20260505111916 43 71 0.0 0.0 0.00 0.00 0.00 97 1013.6
20260505110927 43 68 0.0 0.0 0.00 0.00 0.00 97 1013.5
20260505101933 44 96 0.0 0.0 0.00 0.00 0.00 97 1013.0
20260505100903 44 96 0.0 0.0 0.00 0.00 0.00 97 1013.0
20260505095842 44 96 0.0 0.0 0.00 0.00 0.00 97 1012.9
20260505094836 44 97 0.0 0.0 0.00 0.00 0.00 97 1012.9
20260505093808 44 96 0.0 0.0 0.00 0.00 0.00 97 1012.9
20260505092749 44 97 0.0 0.0 0.00 0.00 0.00 97 1012.9
20260505091721 44 53 0.0 0.0 0.00 0.00 0.00 97 1012.8
20260505090744 45 53 0.0 0.0 0.00 0.00 0.00 97 1012.9
20260505085737 45 53 0.0 0.0 0.00 0.00 0.00 97 1012.8
20260505084726 45 355 0.0 0.0 0.00 0.00 0.00 96 1012.9
20260505083726 45 355 0.0 0.0 0.00 0.00 0.00 96 1012.8
20260505082736 45 355 0.0 0.0 0.00 0.00 0.00 96 1013.0
20260505081748 45 46 0.0 0.0 0.00 0.00 0.00 96 1013.1
20260505080716 46 46 0.0 0.0 0.00 0.00 0.00 96 1012.9
20260505074615 46 46 0.0 0.0 0.00 0.00 0.00 96 1012.7
20260505073613 46 46 0.0 0.0 0.00 0.00 0.00 96 1012.6
20260505071501 47 355 0.0 0.0 0.00 0.00 0.00 96 1012.7
20260505070516 47 355 0.0 0.0 0.00 0.00 0.00 96 1012.5
20260505065535 47 355 0.0 0.0 0.00 0.00 0.00 95 1012.3
20260505064542 47 355 0.0 0.0 0.00 0.00 0.00 95 1012.4
20260505063550 48 355 0.0 0.0 0.00 0.00 0.00 95 1012.4
20260505062606 48 304 0.0 0.0 0.00 0.00 0.00 95 1012.6
20260505061534 48 315 0.0 0.0 0.00 0.00 0.00 95 1012.6
20260505060509 48 315 0.0 0.0 0.00 0.00 0.00 95 1012.8
20260505055503 48 315 0.0 0.0 0.00 0.00 0.00 95 1012.9
20260505054437 49 315 0.0 0.0 0.00 0.00 0.00 95 1012.7
20260505051256 49 315 0.0 0.0 0.00 0.00 0.00 94 1012.7
20260505041049 51 315 0.0 0.0 0.00 0.00 0.00 92 1012.6
20260505040059 51 320 0.0 0.0 0.00 0.00 0.00 92 1012.6
20260505035046 51 323 0.0 0.0 0.00 0.00 0.00 91 1012.9
20260505034102 52 331 0.0 0.0 0.00 0.00 0.00 91 1012.9
20260505033032 52 331 0.0 0.0 0.00 0.00 0.00 91 1012.9
20260505032016 52 295 0.0 0.0 0.00 0.00 0.00 90 1013.0
20260505030944 53 295 0.0 0.0 0.00 0.00 0.00 90 1012.9
20260505025958 53 294 0.0 0.0 0.00 0.00 0.00 91 1013.4
20260505025015 54 323 0.0 0.0 0.00 0.00 0.00 90 1013.1
20260505023950 54 323 0.0 0.0 0.00 0.00 0.00 90 1013.1
20260505022942 55 325 0.0 0.0 0.00 0.00 0.00 89 1013.1
20260505021942 55 349 0.0 0.0 0.00 0.00 0.00 88 1013.0
20260505020935 56 318 0.0 0.0 0.00 0.00 0.00 87 1012.8
20260505015927 56 199 0.0 0.0 0.00 0.00 0.00 88 1013.4
20260505014855 57 313 0.0 0.0 0.00 0.00 0.00 87 1013.2
20260505013845 57 313 0.0 0.0 0.00 0.00 0.00 86 1013.1
20260505012831 58 304 0.0 0.0 0.00 0.00 0.00 86 1012.9
20260505010730 59 307 0.0 0.0 0.00 0.00 0.00 83 1012.7
20260505005657 60 305 0.0 0.0 0.00 0.00 0.00 83 1013.0
20260505004642 61 287 0.0 0.0 0.00 0.00 0.00 81 1012.8
20260505003625 62 284 0.0 0.0 0.00 0.00 0.00 77 1012.5
20260505002559 63 284 0.0 0.0 0.00 0.00 0.00 75 1012.4
20260505001600 64 310 0.0 0.0 0.00 0.00 0.00 74 1012.4
20260505000548 65 310 0.0 0.0 0.00 0.00 0.00 74 1012.1
20260504235540 66 16 0.0 0.0 0.00 0.00 0.00 70 1012.5
20260504234537 67 12 0.0 0.0 0.00 0.00 0.00 68 1012.4
20260504233511 68 351 0.0 0.0 0.00 0.00 0.00 65 1012.3
20260504232455 69 248 0.0 0.0 0.00 0.00 0.00 60 1012.2
20260504231452 70 248 0.0 1.0 0.00 0.00 0.00 59 1012.1
20260504230505 70 252 0.0 2.0 0.00 0.00 0.00 57 1012.2
20260504225449 71 192 0.0 2.0 0.00 0.00 0.00 56 1012.1
20260504223332 72 224 0.0 4.0 0.00 0.00 0.00 51 1012.0
20260504222348 72 257 0.0 2.0 0.00 0.00 0.00 50 1012.1
20260504221404 72 256 0.0 2.0 0.00 0.00 0.00 50 1012.0
20260504220407 73 256 1.0 4.0 0.00 0.00 0.00 49 1012.0
20260504215348 74 107 1.0 5.0 0.00 0.00 0.00 49 1011.9
20260504214347 75 80 1.0 5.0 0.00 0.00 0.00 48 1011.8
20260504213327 74 85 1.0 4.0 0.00 0.00 0.00 47 1011.9
20260504212310 74 255 1.0 6.0 0.00 0.00 0.00 48 1011.7
20260504211236 74 63 1.0 6.0 0.00 0.00 0.00 48 1011.7
20260504210250 75 269 0.0 5.0 0.00 0.00 0.00 47 1011.7
20260504205235 74 265 1.0 5.0 0.00 0.00 0.00 48 1011.8